Wind_Speed
22 23 24 23 20 19 17 15 14 15 16 15 15 13 10 9 8 8 8 9 10 11 12 11 11 10 10 9 9 8 8 9 10 10 11 11 10 9 9 9 11 12 11 10 9 9 11 13 15 15 14 14 13 13 12 11 10 10 9 9 8 7 8 6 2 5 12 12 11 11 10 9 7 6 6 6 6 7 8 9 7 6 4 1 3
25 26 25 22 20 18 17 15 15 16 16 15 13 12 10 8 7 7 7 9 10 11 12 12 12 12 12 11 10 10 10 12 12 12 12 11 11 10 9 9 11 12 12 12 11 10 10 11 12 12 11 11 12 12 11 11 10 10 10 10 9 10 11 9 5 4 7 11 12 12 11 10 8 6 6 6 6 5 6 6 5 5 5 4 4
24 24 23 21 20 19 17 15 16 16 15 14 13 12 11 8 6 6 7 9 11 12 13 13 14 14 14 14 14 13 13 14 14 14 14 13 12 11 11 10 9 9 10 11 12 12 12 11 11 11 10 11 11 11 11 10 10 10 11 12 11 11 13 12 10 7 7 10 12 11 11 11 9 7 6 6 6 6 4 4 3 4 4 4 5
23 22 22 22 21 20 18 17 17 16 16 15 13 12 12 9 6 5 6 8 11 13 14 14 15 16 16 16 16 16 16 15 15 14 14 13 13 12 11 10 9 8 8 9 11 13 13 13 12 12 11 11 12 12 11 10 10 9 11 14 14 14 15 15 12 9 9 11 12 11 10 10 10 9 8 7 7 7 7 5 4 4 5 6 7
23 23 23 24 23 21 20 20 19 19 18 15 13 13 12 9 7 7 7 8 12 14 15 15 16 17 17 17 18 18 17 16 15 15 13 13 12 11 10 9 9 8 8 8 9 11 13 13 13 13 12 12 12 12 12 11 10 8 9 13 15 16 18 17 13 9 9 10 11 11 11 10 10 10 10 10 8 8 8 8 7 7 8 8 9
22 23 24 25 25 24 24 23 23 23 21 17 15 14 13 11 11 11 10 9 13 15 16 17 17 18 18 18 19 19 18 18 16 15 14 14 13 12 11 11 10 9 9 10 10 11 12 12 12 12 12 13 13 14 14 13 12 10 8 10 12 14 17 17 14 11 8 8 10 12 12 11 11 10 11 12 11 10 9 9 8 9 10 11 12
21 23 24 26 26 26 26 25 25 26 24 20 17 15 15 15 15 14 12 12 15 17 17 17 18 18 18 18 18 19 19 19 18 16 15 15 14 14 13 12 12 11 11 11 12 13 13 13 12 12 12 13 14 13 13 14 13 12 10 10 11 14 17 18 15 13 10 9 11 13 12 11 11 11 11 12 13 12 12 10 10 10 11 12 13
20 21 24 26 27 27 27 26 26 26 23 18 17 17 19 19 17 15 14 14 15 17 17 17 17 17 16 16 16 17 17 18 18 17 16 15 15 14 14 13 13 12 12 12 13 13 13 13 13 12 12 13 14 14 13 14 14 14 13 13 14 16 18 17 15 14 13 12 12 13 13 13 12 12 13 13 14 14 14 13 11 11 11 12 13
21 22 23 27 29 30 31 29 28 26 21 19 21 23 23 19 17 16 16 15 16 17 16 16 17 17 16 15 14 14 15 15 16 17 16 16 15 14 14 14 14 14 14 13 13 12 11 11 11 11 12 13 14 14 14 14 14 14 14 15 17 18 18 17 16 15 15 15 15 15 15 15 15 14 14 14 14 14 15 14 13 12 13 13 14
18 21 23 27 30 31 30 29 28 26 22 21 22 25 25 20 18 17 16 16 17 19 18 17 17 17 17 15 14 14 13 13 14 14 15 16 15 14 14 14 14 15 15 14 13 12 11 11 12 13 13 13 14 14 14 14 13 13 13 15 17 18 18 17 16 16 17 17 17 18 18 18 18 17 16 15 14 14 15 15 14 14 14 15 15
15 17 19 21 24 25 24 24 23 22 22 22 23 25 25 22 20 19 17 17 19 21 20 19 18 17 17 16 15 15 14 13 13 13 14 14 15 14 14 14 14 15 14 14 13 13 14 14 14 14 14 14 15 15 15 15 15 14 13 14 16 17 17 17 16 16 17 17 18 19 20 20 20 19 18 16 16 15 16 16 16 16 16 17 17
15 14 13 13 14 16 19 20 20 20 22 23 24 25 25 24 22 20 18 18 20 22 22 20 18 18 18 18 17 17 17 16 16 16 16 16 16 16 16 17 18 16 15 15 16 16 17 17 17 16 16 16 17 18 18 18 18 18 18 17 17 18 18 18 18 17 16 16 16 18 19 20 20 20 19 17 16 16 16 16 16 17 17 18 19
17 15 12 10 9 9 13 17 19 21 23 23 24 26 25 25 23 20 20 20 20 21 22 21 19 18 19 19 18 17 16 17 18 19 20 19 18 18 19 20 21 19 16 18 19 20 20 21 21 20 20 20 21 21 21 21 22 22 22 21 21 20 21 21 21 20 19 17 17 18 18 18 18 18 17 16 15 15 16 16 16 17 18 20 21
20 18 16 13 12 11 11 12 13 16 21 24 24 23 22 23 22 19 19 20 20 20 20 20 20 20 20 21 20 17 16 16 18 20 20 19 19 20 20 21 22 21 20 20 21 22 23 23 23 23 23 24 25 25 24 24 24 25 25 25 24 23 22 22 22 23 22 20 20 18 17 17 16 16 16 16 16 17 17 18 19 20 21 22 23
21 19 17 15 13 12 11 10 10 12 16 19 19 18 19 20 19 17 16 18 19 18 18 19 19 19 20 22 21 19 18 18 20 21 20 19 20 21 22 22 22 22 21 21 22 22 23 24 25 26 27 28 28 27 26 26 25 26 28 27 27 26 24 23 22 22 22 21 20 18 16 16 17 16 16 17 17 18 20 21 22 23 23 23 24
23 20 18 17 15 13 12 12 13 14 14 14 13 13 15 16 15 14 15 16 17 17 17 18 16 14 16 19 20 22 23 22 22 21 20 21 22 23 22 23 23 23 22 22 22 22 24 25 27 28 29 30 29 28 27 27 27 28 28 28 28 27 25 24 22 21 21 20 19 17 16 16 17 17 18 19 20 21 22 22 22 22 22 21 21
23 21 20 18 17 16 15 14 14 14 14 14 14 12 12 11 11 11 12 14 15 15 16 16 14 12 14 16 17 19 20 19 20 21 21 22 23 23 22 23 24 25 25 24 24 24 25 27 28 29 31 32 30 28 27 27 27 28 28 28 27 26 26 24 21 20 20 20 19 18 17 17 18 19 19 20 20 21 21 20 20 19 19 18 18
20 19 18 16 15 15 14 14 14 13 13 13 12 12 11 11 10 10 10 11 12 12 11 11 10 10 11 11 12 13 11 10 14 18 19 21 24 24 24 25 26 26 27 26 26 27 27 28 29 31 31 31 29 27 26 26 26 27 27 26 26 26 25 23 20 20 20 19 18 17 16 16 17 17 17 17 17 18 18 17 17 17 17 17 17
14 13 12 11 10 10 10 10 10 10 10 10 9 9 9 9 9 9 9 9 10 9 9 9 8 9 9 9 10 9 8 7 10 14 16 18 21 22 24 25 27 27 28 28 27 28 28 28 29 29 29 27 25 24 24 24 25 25 25 25 25 25 23 20 18 18 18 17 16 15 14 14 14 14 14 14 14 15 16 16 16 17 17 17 18
9 7 6 4 4 3 3 4 4 4 4 4 4 4 5 6 6 6 7 7 8 8 9 9 9 9 10 10 10 10 9 8 9 10 12 13 16 18 21 23 25 26 26 27 27 27 27 27 27 27 25 23 23 23 23 23 23 23 24 24 23 22 20 18 17 17 16 15 15 14 14 13 13 13 13 13 14 15 16 16 16 17 17 17 17
6 5 3 2 2 3 3 4 3 3 3 3 3 3 3 4 5 6 6 7 8 9 10 10 11 10 11 11 12 12 12 12 11 11 11 11 12 15 17 19 21 22 23 23 23 23 24 24 24 24 23 22 22 22 22 22 21 22 23 23 21 19 18 18 17 17 16 16 15 14 13 13 12 12 12 12 13 14 15 15 16 16 16 16 16
6 6 5 5 5 6 6 8 8 9 10 10 10 10 10 10 10 10 10 10 10 11 12 12 13 12 12 13 13 14 14 15 14 14 13 13 13 13 15 16 17 17 18 18 19 20 20 21 22 23 23 23 23 23 23 22 22 23 23 22 20 18 17 17 17 16 16 16 14 13 12 12 11 11 12 13 13 14 14 15 15 15 16 16 17
7 8 9 9 8 9 9 10 10 11 12 13 14 15 15 16 16 16 16 16 16 16 17 17 17 17 16 16 16 16 16 16 17 17 16 16 15 15 15 15 15 16 16 16 17 17 19 21 23 24 25 24 25 25 25 24 24 24 24 22 20 19 18 18 18 17 16 15 14 12 12 11 11 12 11 12 12 13 14 14 15 16 17 18 20
10 11 12 12 12 13 13 13 13 14 14 15 15 16 17 18 18 19 19 20 20 20 21 21 21 22 22 22 21 21 20 20 19 19 19 19 19 19 18 18 18 18 18 18 18 18 20 21 23 25 26 27 28 28 28 29 31 29 26 23 21 21 22 21 20 18 17 15 14 13 12 11 10 10 10 11 12 13 14 14 15 16 18 20 22
12 13 13 14 14 14 15 16 16 17 17 18 18 19 19 19 20 20 21 21 22 22 23 23 23 23 23 24 24 24 25 24 24 23 23 23 23 22 22 22 22 22 22 22 21 22 22 23 24 25 26 28 30 31 33 35 34 30 26 23 23 23 23 22 21 19 17 15 13 12 10 9 9 9 10 11 12 13 14 15 16 18 20 22 23
12 13 13 14 14 14 15 15 16 16 17 18 19 19 20 20 20 21 21 22 22 23 23 24 24 24 24 24 24 23 23 24 24 25 26 26 26 26 26 25 25 25 26 26 25 25 25 25 26 26 27 28 29 31 36 36 29 24 24 24 23 24 23 22 20 18 16 13 11 10 9 9 9 10 11 11 12 13 14 16 18 20 22 24 24
10 10 11 11 12 13 13 14 14 15 15 16 16 17 18 18 19 19 20 21 21 22 23 23 24 24 25 25 25 25 24 24 24 25 26 26 27 27 28 27 25 25 26 27 27 27 27 27 27 27 27 29 29 31 34 33 24 20 21 21 21 22 21 19 17 15 13 11 10 9 9 9 9 10 10 11 12 13 15 17 19 21 23 24 24
8 7 7 7 9 9 10 11 12 13 14 14 15 16 16 16 17 17 18 19 20 20 21 22 23 24 24 25 26 26 25 25 25 26 26 25 25 25 25 26 25 23 24 25 26 27 27 27 27 26 27 29 30 30 30 28 22 20 20 20 20 20 18 16 15 13 11 10 9 9 9 9 9 9 10 11 12 13 16 18 19 20 21 22 22
11 10 8 7 7 7 8 9 10 11 11 12 13 14 15 16 16 16 17 18 19 19 20 21 22 23 23 24 25 25 24 23 23 23 23 22 23 23 23 22 21 20 21 22 23 24 24 24 24 25 27 29 30 29 28 23 20 20 20 19 18 16 14 13 12 10 9 8 8 8 8 8 8 8 9 11 13 14 16 17 18 18 19 20 20
13 12 11 11 10 10 9 9 9 10 11 11 12 12 14 15 17 17 18 19 19 20 21 22 23 24 24 23 23 24 24 24 23 23 22 21 21 21 21 21 20 19 19 20 20 20 20 20 20 20 22 26 29 28 26 22 18 16 15 14 13 11 9 9 9 8 8 7 7 7 7 6 7 8 10 12 13 14 14 15 16 16 18 19 20
14 13 13 12 12 12 11 10 10 10 10 10 10 11 11 12 15 17 19 20 21 22 23 24 25 25 26 26 25 24 23 23 24 24 24 23 22 22 21 21 21 20 20 20 18 17 16 18 19 17 16 19 24 26 24 22 19 16 14 12 10 9 9 10 10 9 9 8 8 7 6 6 7 9 11 12 12 12 12 13 14 16 17 19 20
15 15 15 14 14 13 12 11 10 9 9 9 9 10 10 10 11 14 16 19 20 22 24 25 26 27 28 29 29 27 26 25 25 24 23 22 22 21 20 20 20 20 21 21 19 17 15 14 15 17 16 17 20 21 21 21 20 19 18 15 12 10 11 11 11 10 9 9 8 7 6 7 8 9 10 10 10 10 11 12 14 16 18 19 19
15 15 16 16 15 12 10 10 9 9 9 10 10 10 10 10 10 11 12 14 16 18 21 23 25 26 26 27 28 29 28 27 27 26 25 23 21 20 19 19 18 19 20 20 20 18 15 12 10 13 16 19 20 20 21 22 22 21 18 15 13 12 12 12 12 11 9 8 7 6 7 7 7 8 8 8 8 10 11 13 15 17 18 19 19
14 15 15 15 13 10 8 9 9 9 10 11 12 12 12 11 11 11 11 11 10 11 14 17 19 21 21 21 21 22 22 23 23 24 23 22 21 20 19 18 18 19 19 20 20 19 18 14 10 11 16 20 21 22 23 23 23 20 16 14 15 16 16 15 13 11 9 7 6 6 6 6 6 7 7 7 9 10 12 14 16 17 18 19 19
14 16 16 13 11 9 8 8 9 10 10 10 12 13 13 13 13 13 13 12 11 9 9 11 12 14 14 13 13 13 14 16 18 18 19 19 19 19 19 19 19 18 19 20 21 21 19 15 11 11 15 19 21 22 22 23 23 20 16 16 19 20 18 16 14 11 9 7 6 6 6 6 6 6 6 7 9 10 12 15 16 17 17 17 17
15 17 16 12 9 8 8 8 9 9 9 9 11 12 13 13 14 14 12 12 11 11 11 9 7 6 5 5 6 8 9 12 14 14 14 16 17 18 19 19 19 19 20 21 23 22 20 16 12 11 14 18 22 22 22 22 23 19 17 17 20 20 18 16 14 11 8 7 7 6 6 6 5 6 6 7 8 10 13 15 16 16 15 15 13
15 16 16 13 9 7 8 8 8 9 9 9 10 10 11 13 14 14 12 10 10 11 12 10 6 4 3 2 3 5 7 10 11 11 11 12 14 16 17 17 18 19 20 20 20 19 17 15 14 14 14 17 20 21 21 21 20 18 18 20 20 19 17 15 12 9 7 6 5 5 4 5 5 6 7 7 8 11 13 14 14 14 12 11 10
14 16 17 15 11 8 7 7 8 9 9 9 8 9 10 11 13 13 12 12 11 11 12 11 9 6 5 3 3 3 5 8 10 10 10 11 12 12 13 14 16 17 17 17 17 16 16 15 15 16 17 18 20 20 21 21 21 20 21 21 20 19 18 15 12 10 8 6 4 3 3 4 5 6 7 8 9 11 12 13 13 12 9 7 7
14 15 17 16 13 9 7 6 7 9 9 8 8 9 9 10 11 13 14 14 12 11 10 10 9 8 6 5 3 3 4 5 7 9 10 11 12 11 10 10 11 12 12 13 13 13 14 14 15 16 17 18 19 19 18 19 21 23 23 23 23 21 18 15 12 10 7 5 3 2 2 4 6 7 8 9 10 12 12 12 12 9 7 6 7
13 15 16 16 14 11 9 7 8 9 10 10 10 11 10 11 13 15 16 15 14 13 11 10 8 7 7 6 5 4 4 5 6 7 7 7 7 6 5 4 4 4 4 4 4 5 6 7 8 10 11 12 13 13 14 17 21 24 24 23 21 18 14 12 10 8 5 3 2 1 3 6 7 8 9 9 10 11 11 10 9 7 5 7 9
12 14 16 17 14 11 9 8 8 9 11 11 12 13 13 14 15 16 17 17 17 16 15 13 12 11 10 9 8 7 6 6 7 7 4 1 0 2 3 3 4 6 7 7 7 7 7 6 6 6 6 6 6 8 10 13 17 21 21 20 17 14 12 10 7 4 3 4 4 4 6 8 8 8 9 9 10 11 10 9 7 6 6 8 10
11 12 16 18 15 11 8 7 8 9 10 11 12 13 14 14 14 15 16 17 18 18 17 17 17 16 15 15 13 11 8 7 7 6 4 4 5 7 7 8 10 12 13 13 12 12 10 8 6 4 1 2 3 5 7 10 13 16 16 14 12 10 8 6 4 3 4 5 7 8 9 9 8 8 8 9 10 10 9 7 5 6 8 9 9
10 11 14 16 16 13 11 9 8 8 8 9 11 12 12 12 12 12 14 15 16 16 16 17 17 17 17 16 16 14 12 10 9 8 7 6 6 7 8 9 10 10 11 11 11 10 9 8 7 8 9 9 10 11 11 10 10 10 8 7 6 5 4 4 4 4 5 8 10 11 10 9 8 8 8 8 9 8 6 5 5 7 8 8 9
8 10 12 14 15 15 13 11 9 8 8 9 9 9 9 10 10 10 11 12 13 14 14 14 15 15 14 14 15 15 14 12 10 9 9 9 8 8 7 7 7 7 7 7 7 6 5 6 9 10 10 10 11 10 10 9 8 7 6 5 4 4 5 6 6 6 8 9 11 10 9 8 7 7 7 7 7 6 3 2 5 7 8 7 8
8 9 11 12 13 14 13 12 10 8 8 8 8 7 7 7 8 9 10 10 11 12 13 13 13 14 14 14 15 15 15 13 11 9 9 9 9 7 6 6 7 7 7 8 9 9 7 6 8 9 10 10 10 9 8 8 7 6 5 4 3 4 5 5 6 7 8 8 8 8 7 7 6 6 6 6 6 4 1 2 5 6 6 7 8
7 8 10 10 11 12 13 12 10 8 7 7 8 8 7 7 7 8 9 10 10 11 12 12 13 13 14 15 16 16 16 15 12 10 9 8 8 7 7 8 8 8 8 9 10 10 10 9 9 9 9 9 8 7 6 5 5 4 4 2 1 2 3 4 5 5 5 6 6 6 6 5 5 5 6 6 6 4 2 2 4 5 6 7 8
8 8 8 8 9 9 11 11 11 9 7 6 7 8 9 9 8 8 8 8 8 9 9 10 12 13 14 15 16 16 16 14 12 11 9 8 8 8 7 7 8 7 7 6 7 7 8 9 8 8 8 7 6 5 4 4 3 3 1 1 0 1 1 1 2 3 3 3 4 4 4 4 4 4 4 6 6 4 4 2 3 4 5 6 7
9 8 7 7 7 8 9 10 11 11 8 6 5 6 8 8 8 9 8 8 7 7 8 9 11 12 13 14 14 14 14 14 13 12 11 10 9 8 8 8 8 7 6 6 7 8 9 9 8 7 6 4 3 2 2 2 2 1 1 0 0 0 0 1 2 3 4 3 2 2 2 2 2 2 3 5 5 2 5 6 4 4 5 5 6
8 8 7 7 7 7 8 9 10 12 11 7 4 4 5 5 7 8 8 8 8 7 8 8 9 10 10 11 11 11 11 11 11 11 11 10 9 8 7 7 7 6 6 6 7 7 7 6 4 3 3 3 2 1 1 1 1 1 1 1 1 1 0 1 2 4 5 5 4 3 2 2 3 3 4 6 6 4 1 5 5 4 6 5 5
7 7 8 8 8 8 8 9 10 11 12 10 6 4 2 2 3 5 6 7 8 8 8 8 8 8 7 7 6 7 8 8 8 8 8 8 7 6 5 4 3 3 2 2 3 3 2 1 1 2 2 2 2 2 2 2 1 1 1 1 1 1 1 1 1 2 4 4 5 5 4 4 5 5 6 6 6 5 4 2 3 3 6 7 5
7 7 8 9 9 9 9 10 10 11 11 11 9 6 3 1 1 1 2 3 4 6 7 7 7 7 7 6 6 6 7 7 8 8 8 8 8 8 8 7 6 4 3 2 1 1 1 2 2 2 2 3 3 2 2 2 1 1 2 2 2 1 1 1 1 2 3 3 4 4 4 4 4 5 6 6 6 6 6 5 3 4 6 7 6
Wind_Direction
191 189 185 184 184 184 188 199 204 199 192 188 185 177 167 161 151 147 160 173 178 181 178 169 163 164 168 173 177 176 173 167 161 160 166 171 171 171 173 175 176 171 164 163 161 165 173 171 170 171 171 171 174 176 179 185 197 208 216 224 228 228 220 217 203 161 162 159 161 170 176 174 168 155 146 153 162 164 169 175 180 187 197 213 17
195 192 188 185 184 183 191 202 202 194 185 181 179 173 169 170 160 151 165 178 178 179 178 170 163 161 163 167 170 171 171 166 161 158 158 158 157 155 156 160 170 176 178 178 176 175 177 178 180 182 183 186 186 182 185 192 202 212 221 230 235 239 233 223 222 219 192 178 173 177 183 179 169 153 142 147 159 166 170 182 199 212 224 253 322
194 192 188 185 184 186 192 198 196 188 181 178 177 174 176 177 167 166 181 185 183 180 176 172 168 166 166 165 164 164 164 161 158 155 152 150 148 145 144 146 156 170 181 187 188 187 185 181 182 185 187 192 194 194 200 210 218 225 231 237 240 243 240 231 229 246 242 210 194 189 192 189 179 166 156 158 167 175 175 179 200 217 235 268 300
194 194 191 187 188 190 191 192 191 188 186 185 181 181 185 180 173 195 207 200 194 184 177 175 175 174 172 169 165 164 164 162 159 157 153 151 151 150 149 147 150 158 170 181 188 193 197 197 195 195 200 207 211 213 218 226 231 237 240 240 240 241 239 231 229 246 257 238 217 200 192 190 184 181 187 190 189 190 194 205 223 233 245 266 279
194 196 196 196 197 195 190 188 188 189 191 188 181 185 190 181 187 225 237 218 206 193 180 178 181 180 177 172 169 168 168 168 166 164 162 162 163 164 164 163 164 167 171 179 187 195 203 210 212 212 215 221 225 227 231 236 239 243 242 236 234 234 231 226 225 234 246 246 231 207 190 188 188 194 204 211 217 213 209 219 230 234 243 250 255
195 194 197 200 201 196 190 187 187 191 192 184 178 187 192 186 199 228 242 228 212 200 187 185 187 185 181 177 175 175 176 177 177 175 175 176 178 180 183 184 185 188 190 192 197 201 205 212 219 225 228 229 231 235 240 244 244 242 235 226 222 219 218 220 223 223 223 234 229 211 198 196 200 211 217 220 227 232 232 238 241 243 249 247 244
196 195 197 199 199 197 192 190 190 193 189 178 177 187 192 198 212 230 241 230 214 205 197 193 191 188 187 186 185 184 185 186 186 187 187 189 191 194 197 199 200 205 208 209 209 211 214 217 223 230 237 240 242 244 246 246 244 238 230 221 211 205 210 218 225 221 214 216 220 215 210 207 209 221 228 227 231 235 238 247 255 255 253 248 248
196 199 200 201 202 199 197 196 196 196 194 193 200 200 195 203 219 230 236 230 216 208 204 198 195 192 192 195 195 194 196 198 199 199 199 200 203 207 210 212 214 219 224 225 223 221 222 226 230 234 239 246 252 253 251 246 242 237 230 221 213 211 216 222 225 222 214 210 214 220 222 220 219 225 231 234 238 239 240 248 259 260 255 254 258
188 193 197 202 204 200 198 199 201 206 215 219 214 202 196 208 223 224 228 227 217 212 207 202 200 198 195 196 199 201 204 207 211 214 214 214 216 220 224 227 228 231 236 239 239 236 234 238 241 242 246 252 256 260 261 254 247 243 239 231 224 224 225 225 226 226 221 215 214 219 225 228 229 230 234 239 242 244 246 253 259 259 259 260 264
175 185 192 198 202 201 198 197 198 204 212 211 199 190 194 209 220 217 221 222 216 213 210 207 207 203 199 198 200 206 209 212 217 222 222 224 227 232 236 239 238 237 239 242 243 242 245 251 254 254 257 260 260 263 268 266 259 250 243 239 235 233 234 233 230 228 227 224 220 220 223 227 230 232 236 239 241 242 248 255 260 261 261 262 264
156 176 188 192 198 201 196 192 193 195 199 201 197 193 198 208 212 212 216 218 216 213 210 212 213 209 206 206 210 215 219 220 225 227 228 230 235 241 247 251 247 240 239 245 246 246 249 256 261 261 262 264 264 265 268 270 265 255 244 239 236 235 236 237 234 228 226 227 227 226 227 228 230 233 236 237 238 241 245 252 256 257 259 261 264
138 158 173 180 191 195 190 189 194 198 200 202 201 199 202 206 208 211 214 213 212 211 210 212 214 212 212 215 221 227 230 233 235 236 237 237 239 245 251 253 251 246 247 255 258 257 257 258 261 263 264 265 265 263 263 264 263 259 254 247 241 236 233 233 233 232 231 233 236 237 235 232 231 234 237 238 240 242 245 248 251 253 257 262 267
125 134 143 151 160 168 181 191 197 200 202 202 201 203 205 207 209 212 211 208 208 209 211 213 213 214 217 218 224 232 235 237 238 237 239 242 246 251 252 250 253 257 258 259 261 263 262 260 259 261 264 266 265 263 260 259 258 257 257 255 250 243 238 236 236 238 240 244 247 245 239 235 233 233 236 240 244 249 252 254 256 259 262 267 273
117 118 121 125 126 131 154 178 185 188 194 198 201 203 203 206 209 209 207 207 209 211 215 218 218 220 221 221 223 228 230 233 236 238 241 246 249 253 253 249 252 257 257 256 259 262 262 261 259 261 265 268 269 267 263 258 255 253 253 254 253 249 246 244 242 241 243 245 245 242 237 237 239 239 241 246 250 254 258 261 263 266 270 275 280
113 114 113 112 115 121 130 138 138 149 170 188 199 201 201 207 211 209 207 210 213 216 220 226 227 225 226 227 228 228 228 231 237 240 243 246 247 252 257 258 258 259 258 257 258 259 260 260 260 262 266 269 270 269 266 262 257 253 250 250 251 250 250 251 247 241 240 240 240 238 235 237 243 246 248 252 255 257 260 262 266 270 274 279 284
110 111 107 101 100 104 113 123 125 124 132 150 167 178 191 203 209 211 213 216 220 224 228 237 243 235 232 237 239 237 236 236 240 243 244 246 250 253 258 263 265 266 265 263 260 260 260 261 261 264 267 269 270 269 267 263 257 251 248 247 247 248 250 251 246 238 236 237 238 240 240 241 246 250 254 256 258 261 264 266 270 273 277 282 285
108 109 105 100 98 100 107 118 125 124 125 130 136 144 160 178 185 191 199 207 216 222 226 234 242 236 232 238 244 249 249 241 240 245 247 251 257 260 260 262 263 265 264 262 261 260 260 261 262 264 265 267 269 269 265 259 251 246 244 243 244 246 248 247 241 234 233 235 238 241 244 246 248 252 255 258 261 264 267 270 274 278 283 288 291
101 103 102 98 97 99 104 113 122 129 134 133 131 134 143 154 161 167 174 182 191 200 207 214 221 224 230 235 242 255 262 243 236 243 248 252 257 260 261 261 262 262 262 261 260 260 260 261 262 263 265 266 267 265 259 251 243 239 238 238 241 245 244 240 233 230 231 234 237 240 242 244 247 249 253 258 262 266 271 277 283 289 293 296 296
90 92 91 90 90 91 94 102 113 124 133 133 132 136 144 151 157 164 172 178 183 190 195 196 200 209 217 223 231 246 253 241 240 247 251 253 257 259 260 262 262 263 264 264 264 263 263 263 263 264 265 264 262 257 249 241 236 235 236 237 240 241 238 231 227 228 230 230 232 234 236 239 243 248 253 260 267 274 282 289 295 298 299 298 298
69 71 72 76 84 85 86 91 98 110 124 134 138 144 153 165 175 183 192 200 207 211 214 214 214 219 224 228 234 242 243 240 242 250 256 260 262 261 261 262 264 266 266 266 266 265 264 263 264 263 262 260 255 248 240 235 232 232 234 234 235 235 231 225 222 224 226 228 230 232 237 242 248 254 261 269 278 286 292 295 297 298 298 297 298
37 35 25 1 314 288 274 268 266 264 270 277 266 253 247 237 231 229 228 231 233 236 238 237 237 240 245 248 249 250 250 247 245 249 257 264 268 268 266 265 266 266 265 264 262 260 260 260 261 261 259 256 250 242 236 233 232 232 232 231 230 230 228 225 224 224 226 229 234 237 242 249 256 263 272 280 286 290 293 295 297 299 299 299 299
0 353 346 334 317 305 294 285 278 274 273 276 276 276 279 279 277 274 270 266 263 260 258 257 255 255 257 259 260 259 259 258 255 255 258 263 267 269 269 268 266 264 263 261 258 257 257 259 259 258 256 254 250 244 238 234 230 227 226 226 226 226 226 226 226 227 228 231 235 240 247 255 263 271 278 284 287 291 296 299 300 300 300 300 302
324 320 320 318 314 311 305 299 293 287 283 281 280 280 281 281 282 282 281 279 277 274 272 271 270 268 267 267 267 266 265 265 264 263 263 264 265 266 266 264 261 261 263 262 260 259 260 261 260 257 255 253 250 246 241 237 232 227 223 222 222 223 223 223 224 225 227 231 236 243 251 259 266 272 278 285 292 297 299 299 299 299 300 303 305
311 308 306 304 302 300 298 295 293 290 288 287 286 284 283 283 283 283 282 282 280 280 279 277 277 276 274 273 272 271 271 271 270 269 268 266 265 265 264 261 258 258 261 262 261 259 259 259 259 258 257 254 251 247 242 237 233 228 223 219 221 223 222 222 224 224 226 230 235 242 249 255 261 270 280 289 292 294 294 296 298 301 304 307 308
315 312 308 305 303 301 298 295 292 290 287 285 284 282 281 281 282 282 282 282 282 282 282 282 282 282 280 278 275 273 271 271 270 269 267 266 266 266 265 262 260 258 259 260 260 259 259 259 258 258 258 258 256 251 245 238 231 225 221 219 220 223 222 221 222 222 223 227 232 238 244 252 263 275 282 286 287 290 294 299 303 305 306 307 309
323 319 315 311 308 304 302 298 295 293 290 287 286 284 282 280 279 278 277 276 276 277 278 279 280 280 281 281 280 278 276 274 272 269 266 264 263 264 264 263 261 258 257 259 260 261 262 262 262 261 259 259 259 256 252 247 236 221 218 219 218 219 220 219 218 220 222 225 231 238 246 256 266 273 277 280 285 291 297 301 304 305 306 308 311
336 327 321 316 310 305 301 297 293 290 289 288 287 286 285 283 281 278 276 275 274 274 274 274 274 274 273 274 274 276 277 278 278 275 272 268 265 262 262 264 264 260 257 256 258 262 265 265 265 263 259 257 257 254 250 248 238 217 210 209 209 210 212 212 214 217 220 225 231 238 246 254 262 268 274 280 287 293 297 300 302 304 306 308 310
9 356 342 331 322 316 310 303 297 290 284 282 280 280 281 280 279 278 276 275 274 273 273 273 273 273 272 271 270 269 269 272 275 276 275 274 271 267 264 265 267 267 264 261 261 264 266 268 267 262 256 255 254 246 240 239 233 215 203 198 198 201 202 203 207 210 214 223 232 238 244 250 258 266 275 283 288 292 295 298 301 304 306 308 310
27 23 17 7 355 345 335 324 315 306 296 286 278 274 273 272 271 271 272 272 273 272 271 271 271 271 272 273 274 272 268 267 270 274 276 276 275 273 271 269 270 274 275 274 272 269 267 266 264 258 254 253 249 239 233 228 216 203 198 196 197 199 200 204 208 209 213 224 232 235 239 245 255 266 276 282 287 292 297 300 303 306 309 312 314
27 23 17 12 7 0 351 341 330 324 318 309 298 287 279 274 271 269 267 267 268 269 269 269 269 270 270 271 274 277 278 275 274 275 278 280 279 278 278 277 277 278 278 280 283 280 269 260 257 258 258 253 244 235 229 219 205 199 202 199 194 196 203 212 216 212 212 218 224 228 235 245 259 270 277 282 288 295 299 302 305 310 315 318 321
30 25 20 14 7 359 352 347 341 336 332 327 321 310 296 285 279 275 272 269 267 266 267 268 269 271 272 272 272 274 277 280 279 279 279 280 281 280 278 278 279 279 278 281 289 294 284 266 259 265 268 256 243 234 226 216 207 205 207 204 201 210 219 219 215 213 216 221 225 231 241 256 269 276 281 286 294 300 302 304 311 318 323 325 325
26 22 18 12 4 356 351 349 351 352 347 342 334 323 311 297 284 277 275 274 273 271 270 268 268 269 271 273 274 273 273 274 275 277 278 278 278 277 276 275 276 276 276 279 284 293 297 283 266 262 264 258 248 238 226 216 209 205 206 209 213 212 212 213 216 220 227 230 230 235 248 261 271 279 285 291 298 302 306 313 321 326 327 327 325
20 14 9 4 358 354 353 356 2 4 359 352 345 336 328 317 300 285 278 275 274 274 273 272 271 270 269 270 272 274 274 273 272 272 273 273 271 270 269 270 270 271 273 275 276 280 288 290 274 260 256 253 247 237 224 214 210 208 207 211 212 208 211 221 228 230 231 232 232 239 250 261 272 280 286 292 298 305 314 322 326 328 327 324 322
15 10 3 357 355 358 6 12 13 8 1 356 351 346 342 338 329 317 307 299 288 276 269 269 270 271 271 271 272 273 274 273 272 270 270 268 265 263 263 264 265 267 269 272 274 273 272 271 266 260 256 249 239 227 217 210 208 207 205 206 210 215 221 226 228 227 227 229 234 241 249 262 276 280 282 291 301 311 320 325 326 326 324 320 320
12 11 5 359 359 8 18 19 13 7 2 357 352 349 350 349 345 338 331 327 324 315 298 285 278 275 272 270 272 273 272 270 269 268 266 264 261 260 260 260 262 265 269 273 272 269 265 261 256 258 258 248 232 221 215 212 212 213 214 213 210 212 217 219 219 220 224 231 240 249 261 277 285 282 284 295 305 313 320 324 324 324 321 318 318
12 13 10 6 5 11 16 13 6 3 1 358 354 354 359 3 1 353 345 338 336 338 338 328 310 297 288 271 270 277 275 268 265 266 267 265 261 258 256 256 258 263 268 269 268 266 265 265 265 262 254 245 236 231 227 221 218 221 228 224 214 210 212 214 215 219 229 240 249 260 278 288 285 279 285 296 305 312 320 323 324 322 319 318 323
12 10 10 11 10 5 4 2 2 3 5 4 1 1 9 16 14 9 4 0 359 7 13 12 5 357 357 340 307 299 287 274 268 271 277 275 265 257 252 251 256 262 267 268 269 268 266 265 265 263 256 250 247 244 239 233 231 232 231 222 212 209 210 211 215 224 230 236 253 275 290 286 278 281 292 300 307 314 321 324 323 320 320 323 334
9 8 9 13 16 11 1 1 8 13 14 13 12 12 17 19 18 20 24 23 19 22 30 36 41 43 37 22 355 327 305 287 279 279 286 290 283 268 258 257 262 268 272 274 274 271 265 258 254 253 253 254 253 250 247 245 243 239 230 216 207 207 209 207 210 216 217 223 251 286 293 284 286 295 300 304 311 318 323 325 323 325 334 348 351
8 8 7 12 20 21 16 20 28 27 25 25 24 22 22 23 26 30 33 31 27 27 32 37 42 45 45 39 20 348 328 311 298 290 288 288 285 278 273 274 276 277 279 278 275 271 267 259 251 248 248 248 249 251 251 244 237 233 226 214 206 207 208 203 201 208 217 235 256 261 277 291 298 302 303 308 317 322 324 326 330 339 360 7 350
8 7 5 11 21 27 30 36 39 37 38 42 41 39 40 41 42 41 38 34 34 37 38 39 44 48 48 47 41 25 15 3 347 333 311 286 277 280 287 287 284 288 291 288 285 289 288 278 263 254 249 248 247 247 244 237 230 224 216 206 202 204 201 195 197 209 230 258 272 280 296 300 302 303 305 311 317 320 324 333 342 354 0 345 336
5 4 1 6 17 27 31 35 38 40 44 49 52 55 57 55 52 50 46 43 46 50 51 53 56 55 52 49 43 30 15 4 1 360 349 304 335 53 51 59 59 45 34 28 24 20 14 356 321 289 272 267 261 247 235 227 218 208 198 193 194 197 196 195 203 221 245 265 288 305 305 301 301 302 305 310 315 320 330 342 350 353 348 338 337
355 356 357 3 12 18 17 19 28 38 45 51 55 60 61 59 56 55 53 51 54 57 59 59 56 52 48 44 39 32 23 16 22 35 57 81 79 67 59 56 49 37 25 16 13 15 16 5 344 328 346 126 146 158 165 173 178 181 183 185 188 193 199 205 209 221 245 271 290 297 297 297 298 300 303 308 313 323 339 352 350 345 342 338 338
348 349 352 360 9 12 8 9 22 35 45 51 56 60 62 60 58 57 55 54 54 55 57 56 51 45 41 38 36 37 41 45 53 63 70 72 71 66 57 50 43 32 18 7 5 12 27 47 67 86 102 115 125 128 128 133 141 151 162 171 177 183 196 204 205 221 255 277 284 287 289 293 294 296 300 306 313 327 351 3 344 339 342 340 339
346 346 347 355 6 12 9 8 18 33 43 48 52 58 62 62 61 59 59 59 56 52 51 48 42 38 38 39 41 45 48 52 56 59 58 61 66 65 58 51 44 36 29 26 22 21 44 81 96 101 105 110 113 112 110 110 113 121 133 146 160 176 189 205 226 250 269 276 278 281 284 286 288 293 295 301 311 328 356 359 338 341 347 346 341
339 340 341 348 1 11 14 12 17 26 35 40 44 48 52 56 57 56 56 56 54 51 48 45 40 39 42 45 47 47 46 47 49 52 54 59 64 65 64 63 57 53 57 64 62 55 57 78 96 100 102 104 102 98 98 101 104 113 122 131 154 187 211 237 256 267 273 273 273 276 277 279 284 287 287 295 310 315 292 319 337 342 342 339 338
323 329 333 341 355 9 15 18 20 22 26 33 40 43 44 48 50 49 49 48 47 46 44 42 41 43 45 46 45 42 40 40 45 50 52 55 60 66 73 79 76 72 70 69 67 65 67 75 81 85 88 90 89 86 88 95 103 111 114 113 150 219 251 266 269 274 277 274 271 274 273 273 279 282 286 302 311 296 256 301 337 336 333 336 336
300 309 318 333 352 7 13 16 20 21 21 26 35 39 42 46 48 48 48 47 43 40 40 42 44 48 49 46 42 38 36 37 43 49 51 54 59 67 78 91 99 99 89 76 70 76 84 88 87 85 86 87 89 94 105 114 119 123 120 106 149 215 263 275 291 312 310 292 283 282 277 274 282 289 302 318 315 280 237 244 316 329 333 337 336
282 282 292 316 342 0 5 8 13 18 19 21 28 33 35 40 46 49 53 53 47 44 49 54 56 55 53 51 48 46 45 46 51 55 58 63 69 78 88 96 100 101 99 95 96 99 103 107 110 110 109 112 115 124 137 139 137 139 153 166 201 271 319 26 30 25 20 5 334 315 295 292 307 324 357 4 359 301 225 227 255 319 335 332 335
262 257 271 298 322 341 350 354 2 10 15 16 15 17 22 31 39 45 50 54 53 55 64 72 72 68 63 61 59 55 53 54 57 60 65 71 77 85 93 97 99 103 109 116 122 123 124 127 130 127 123 124 129 152 184 190 186 187 198 203 213 213 143 93 59 45 42 39 34 34 45 49 44 40 27 16 15 13 260 231 240 294 327 326 324
253 252 269 290 304 318 330 337 345 357 4 5 3 2 7 19 28 36 45 54 63 70 79 87 91 90 85 78 67 57 57 63 67 69 72 76 79 80 79 76 83 99 111 127 143 148 143 128 113 106 115 133 155 191 214 227 248 266 239 213 200 179 161 144 52 34 36 37 38 44 53 53 42 28 13 0 353 355 355 316 264 305 342 345 337
259 263 274 285 293 303 314 323 333 343 348 351 354 358 355 316 292 341 25 49 72 86 93 98 103 105 103 97 82 68 68 73 76 77 78 76 70 65 58 49 43 37 30 20 18 19 21 38 71 97 126 152 171 191 204 210 219 221 205 198 199 199 201 237 337 8 16 18 22 31 38 32 13 355 349 343 333 332 341 340 330 348 0 355 344
Height
1515 1516 1515 1515 1517 1520 1522 1525 1526 1528 1529 1530 1532 1533 1534 1535 1536 1537 1538 1539 1540 1540 1540 1540 1540 1541 1542 1544 1545 1546 1547 1548 1548 1549 1549 1550 1550 1550 1550 1551 1552 1552 1553 1554 1554 1555 1556 1556 1557 1558 1558 1559 1560 1561 1561 1562 1563 1563 1564 1564 1565 1565 1566 1567 1567 1568 1568 1569 1570 1571 1572 1572 1573 1573 1574 1574 1574 1575 1575 1576 1576 1576 1577 1577 1577
1513 1514 1514 1515 1517 1520 1523 1525 1526 1528 1529 1531 1532 1533 1534 1535 1536 1537 1538 1539 1540 1540 1540 1540 1540 1541 1542 1543 1545 1546 1547 1548 1549 1549 1550 1550 1551 1551 1551 1552 1552 1553 1554 1555 1556 1556 1557 1558 1558 1559 1559 1560 1561 1561 1562 1563 1563 1563 1564 1564 1564 1565 1566 1567 1568 1568 1569 1569 1570 1571 1571 1572 1573 1573 1574 1574 1575 1575 1575 1576 1576 1576 1576 1577 1577
1513 1514 1515 1516 1518 1520 1522 1525 1527 1529 1530 1531 1532 1533 1534 1535 1536 1537 1538 1539 1540 1540 1541 1541 1541 1541 1542 1543 1544 1546 1547 1548 1549 1550 1550 1551 1552 1552 1553 1553 1553 1554 1555 1556 1557 1557 1558 1559 1559 1560 1560 1561 1562 1562 1563 1563 1563 1564 1564 1564 1564 1564 1565 1567 1568 1569 1569 1570 1570 1570 1571 1572 1573 1573 1574 1574 1575 1575 1575 1575 1576 1576 1576 1576 1576
1513 1514 1516 1516 1518 1519 1521 1524 1527 1529 1530 1531 1532 1533 1534 1535 1535 1537 1539 1540 1540 1541 1541 1541 1542 1542 1543 1544 1545 1546 1547 1548 1549 1551 1551 1552 1553 1553 1554 1554 1555 1556 1556 1557 1558 1558 1559 1560 1560 1561 1561 1561 1562 1562 1563 1563 1563 1564 1563 1563 1564 1564 1565 1566 1568 1569 1569 1570 1570 1570 1571 1572 1573 1573 1574 1574 1574 1575 1575 1575 1575 1575 1575 1576 1576
1512 1513 1515 1516 1517 1519 1520 1523 1526 1528 1530 1531 1532 1532 1533 1534 1535 1537 1539 1540 1541 1541 1541 1541 1542 1543 1543 1544 1545 1546 1548 1549 1550 1551 1552 1553 1554 1554 1555 1555 1556 1557 1558 1558 1559 1559 1560 1560 1561 1561 1561 1562 1562 1562 1562 1563 1563 1563 1563 1563 1563 1563 1565 1566 1567 1568 1569 1569 1570 1570 1571 1572 1573 1573 1573 1573 1574 1574 1574 1575 1575 1575 1575 1575 1575
1510 1512 1514 1515 1516 1519 1520 1522 1525 1527 1529 1531 1531 1532 1533 1534 1535 1537 1539 1540 1541 1541 1541 1542 1542 1543 1544 1545 1546 1547 1548 1549 1550 1551 1552 1553 1554 1555 1555 1556 1556 1557 1558 1559 1559 1559 1560 1560 1561 1561 1562 1562 1562 1562 1562 1562 1562 1563 1562 1562 1562 1563 1564 1566 1567 1567 1568 1568 1569 1570 1570 1571 1572 1572 1573 1573 1573 1574 1574 1574 1574 1574 1574 1574 1574
1510 1512 1514 1515 1517 1518 1520 1521 1523 1525 1527 1529 1530 1531 1533 1534 1535 1537 1538 1539 1540 1541 1541 1542 1543 1544 1544 1545 1546 1547 1548 1549 1550 1551 1552 1553 1554 1554 1555 1556 1556 1557 1558 1559 1559 1560 1560 1560 1561 1561 1562 1562 1562 1562 1562 1562 1562 1562 1562 1562 1562 1562 1564 1565 1566 1566 1567 1567 1568 1569 1570 1570 1571 1571 1571 1572 1572 1573 1573 1573 1573 1573 1573 1573 1573
1510 1512 1513 1515 1516 1518 1519 1521 1523 1524 1525 1527 1529 1531 1533 1534 1536 1537 1538 1539 1540 1541 1541 1542 1543 1544 1545 1546 1547 1548 1548 1549 1550 1551 1552 1553 1554 1554 1555 1555 1556 1557 1558 1558 1559 1559 1560 1560 1561 1561 1561 1562 1562 1562 1562 1563 1562 1562 1562 1562 1562 1562 1563 1564 1564 1565 1566 1566 1567 1567 1568 1569 1569 1570 1570 1570 1571 1571 1571 1572 1572 1572 1572 1572 1572
1509 1510 1512 1513 1514 1515 1516 1518 1520 1522 1524 1526 1529 1531 1533 1534 1535 1536 1537 1539 1540 1541 1542 1542 1543 1543 1544 1545 1547 1548 1549 1550 1551 1551 1552 1553 1554 1554 1554 1555 1556 1557 1557 1558 1559 1559 1559 1560 1560 1561 1561 1561 1562 1562 1562 1562 1562 1563 1562 1562 1562 1562 1562 1563 1563 1564 1564 1565 1565 1566 1566 1567 1568 1568 1569 1569 1569 1570 1570 1570 1570 1570 1571 1571 1571
1508 1510 1511 1511 1511 1512 1513 1515 1517 1520 1523 1526 1527 1529 1531 1533 1534 1536 1537 1538 1539 1540 1541 1542 1543 1543 1543 1544 1545 1547 1548 1549 1550 1551 1552 1553 1554 1554 1554 1554 1555 1556 1557 1557 1558 1558 1559 1559 1560 1560 1560 1561 1561 1561 1561 1561 1561 1562 1562 1562 1562 1562 1561 1562 1562 1563 1563 1563 1564 1565 1565 1566 1566 1567 1568 1568 1568 1569 1569 1569 1569 1569 1569 1569 1569
1509 1510 1511 1511 1511 1512 1514 1515 1517 1519 1522 1524 1526 1528 1530 1532 1534 1535 1536 1537 1538 1539 1541 1542 1542 1542 1543 1543 1545 1546 1547 1548 1550 1551 1552 1553 1553 1553 1554 1554 1554 1554 1555 1556 1557 1557 1558 1558 1558 1559 1559 1559 1560 1560 1560 1560 1560 1560 1561 1561 1561 1561 1561 1561 1561 1561 1562 1562 1562 1563 1564 1564 1565 1565 1566 1567 1567 1568 1568 1568 1568 1568 1568 1568 1568
1510 1511 1512 1512 1512 1513 1515 1517 1518 1519 1521 1523 1526 1528 1529 1531 1533 1534 1535 1536 1537 1538 1540 1540 1541 1541 1541 1542 1544 1545 1546 1547 1549 1550 1551 1552 1552 1553 1553 1553 1553 1554 1555 1555 1556 1556 1556 1556 1557 1557 1557 1558 1558 1558 1559 1559 1559 1559 1559 1559 1560 1560 1560 1560 1560 1560 1560 1560 1561 1561 1562 1562 1563 1564 1564 1565 1566 1566 1566 1566 1566 1566 1566 1566 1566
1511 1512 1513 1514 1514 1515 1516 1517 1518 1520 1522 1524 1526 1528 1529 1531 1532 1533 1534 1536 1536 1537 1538 1538 1539 1540 1540 1541 1542 1543 1545 1546 1548 1549 1550 1551 1551 1551 1552 1552 1552 1553 1554 1554 1554 1554 1554 1554 1554 1555 1555 1555 1555 1556 1556 1557 1557 1557 1557 1557 1557 1558 1558 1558 1558 1558 1559 1559 1559 1559 1560 1561 1561 1562 1563 1563 1564 1564 1564 1564 1564 1564 1564 1564 1563
1511 1512 1513 1514 1515 1515 1516 1518 1519 1521 1523 1525 1527 1528 1530 1531 1532 1533 1534 1535 1536 1537 1537 1538 1538 1539 1539 1540 1540 1541 1543 1545 1546 1548 1548 1549 1550 1549 1549 1550 1550 1551 1552 1552 1552 1552 1552 1552 1552 1552 1553 1552 1552 1553 1553 1554 1554 1554 1554 1554 1555 1555 1555 1556 1556 1556 1557 1557 1557 1557 1558 1559 1559 1560 1561 1561 1562 1562 1562 1562 1562 1562 1562 1561 1560
1511 1513 1514 1515 1515 1516 1517 1518 1519 1520 1522 1525 1527 1529 1531 1532 1532 1532 1533 1534 1535 1536 1536 1537 1536 1537 1538 1538 1539 1539 1540 1542 1544 1545 1546 1547 1547 1547 1547 1548 1548 1548 1549 1550 1550 1550 1550 1550 1550 1550 1550 1550 1549 1550 1550 1550 1551 1551 1551 1552 1552 1552 1553 1553 1554 1554 1554 1555 1555 1555 1556 1557 1557 1558 1559 1559 1560 1560 1560 1560 1560 1560 1560 1559 1558
1512 1513 1514 1515 1516 1517 1518 1519 1519 1520 1522 1524 1526 1528 1529 1530 1531 1531 1532 1533 1533 1534 1535 1535 1535 1536 1538 1538 1538 1538 1539 1541 1542 1543 1544 1544 1544 1545 1546 1546 1546 1546 1547 1548 1548 1548 1548 1547 1547 1547 1547 1546 1546 1547 1547 1547 1547 1547 1548 1548 1549 1549 1550 1550 1551 1551 1552 1552 1552 1553 1553 1554 1555 1556 1557 1557 1557 1558 1558 1558 1558 1558 1558 1557 1557
1513 1514 1515 1516 1517 1518 1519 1520 1520 1521 1522 1524 1525 1526 1527 1528 1529 1530 1530 1531 1532 1532 1533 1534 1534 1535 1536 1536 1536 1536 1538 1540 1541 1541 1542 1542 1542 1542 1543 1543 1543 1544 1544 1545 1545 1545 1545 1544 1544 1544 1543 1543 1543 1543 1543 1543 1543 1543 1544 1545 1546 1546 1547 1547 1548 1549 1549 1549 1550 1551 1551 1552 1553 1554 1554 1554 1555 1555 1556 1556 1556 1556 1556 1555 1555
1514 1515 1516 1517 1518 1520 1521 1521 1521 1522 1523 1524 1525 1526 1527 1528 1528 1529 1529 1530 1530 1531 1532 1532 1532 1533 1533 1534 1534 1535 1536 1538 1539 1539 1539 1539 1539 1540 1540 1540 1540 1541 1541 1542 1542 1542 1542 1541 1541 1540 1540 1540 1540 1540 1540 1540 1540 1540 1541 1542 1543 1543 1544 1544 1546 1547 1547 1547 1548 1549 1549 1550 1551 1551 1552 1553 1553 1553 1554 1554 1554 1554 1554 1553 1553
1517 1517 1518 1519 1520 1521 1522 1523 1523 1523 1523 1524 1525 1526 1526 1527 1528 1529 1529 1530 1530 1530 1531 1531 1531 1531 1532 1532 1533 1533 1534 1535 1536 1536 1536 1537 1537 1537 1537 1537 1537 1537 1538 1539 1539 1538 1538 1538 1537 1537 1537 1537 1537 1537 1537 1537 1537 1538 1539 1540 1541 1541 1541 1542 1544 1545 1545 1545 1546 1547 1548 1548 1549 1550 1550 1551 1551 1551 1551 1551 1551 1551 1551 1551 1550
1519 1520 1521 1521 1522 1523 1524 1524 1524 1524 1524 1524 1525 1526 1526 1527 1528 1528 1529 1529 1529 1530 1530 1530 1530 1531 1531 1531 1531 1531 1532 1532 1533 1533 1534 1534 1534 1534 1534 1534 1534 1535 1535 1535 1535 1535 1535 1535 1534 1534 1534 1534 1534 1534 1535 1535 1535 1536 1537 1538 1539 1539 1540 1541 1542 1543 1543 1544 1544 1545 1546 1546 1547 1548 1548 1549 1549 1549 1549 1549 1549 1549 1549 1548 1548
1521 1522 1522 1523 1523 1524 1524 1525 1525 1525 1524 1525 1525 1525 1526 1526 1527 1527 1528 1528 1528 1528 1528 1528 1529 1529 1529 1529 1530 1530 1530 1530 1530 1531 1531 1531 1532 1532 1532 1532 1532 1532 1532 1533 1533 1533 1532 1532 1532 1532 1532 1533 1532 1532 1533 1533 1534 1535 1535 1536 1538 1538 1539 1540 1540 1541 1541 1542 1542 1543 1544 1544 1545 1546 1546 1546 1547 1547 1547 1547 1547 1546 1546 1546 1545
1522 1522 1522 1523 1523 1524 1524 1524 1524 1524 1524 1524 1524 1524 1524 1525 1525 1525 1526 1526 1526 1526 1526 1526 1526 1526 1527 1527 1527 1527 1528 1528 1528 1529 1529 1529 1529 1529 1529 1530 1530 1530 1530 1530 1530 1531 1531 1531 1531 1531 1531 1531 1531 1531 1531 1532 1532 1532 1533 1535 1536 1537 1537 1538 1538 1539 1539 1540 1540 1541 1542 1542 1543 1544 1544 1545 1545 1545 1545 1544 1544 1544 1543 1543 1543
1521 1521 1521 1522 1522 1522 1522 1522 1522 1522 1523 1522 1523 1523 1523 1523 1523 1523 1523 1523 1523 1523 1523 1523 1523 1524 1524 1525 1525 1525 1526 1526 1526 1527 1527 1527 1527 1527 1527 1527 1527 1527 1527 1528 1529 1529 1529 1529 1530 1530 1530 1530 1530 1530 1530 1530 1530 1530 1531 1532 1533 1534 1535 1535 1536 1536 1537 1538 1538 1539 1540 1540 1541 1542 1542 1542 1542 1542 1542 1542 1541 1541 1541 1541 1540
1520 1520 1520 1520 1520 1520 1520 1520 1520 1521 1521 1521 1521 1521 1521 1521 1521 1521 1521 1520 1520 1520 1520 1520 1520 1521 1522 1523 1523 1524 1524 1524 1524 1525 1525 1525 1525 1525 1525 1525 1525 1525 1525 1525 1526 1526 1527 1527 1527 1527 1527 1527 1527 1527 1527 1527 1526 1527 1528 1529 1531 1532 1532 1533 1533 1534 1535 1536 1537 1537 1538 1539 1539 1540 1540 1540 1540 1540 1540 1540 1539 1539 1539 1539 1538
1519 1519 1519 1519 1519 1519 1519 1519 1519 1519 1519 1519 1519 1519 1519 1519 1519 1519 1519 1518 1518 1518 1518 1518 1518 1519 1519 1520 1521 1522 1522 1522 1523 1523 1523 1523 1523 1523 1523 1523 1523 1523 1522 1522 1523 1523 1524 1524 1524 1524 1524 1523 1524 1524 1523 1521 1521 1524 1525 1526 1527 1529 1529 1530 1531 1532 1533 1534 1534 1535 1536 1536 1537 1537 1538 1538 1538 1538 1538 1537 1537 1537 1537 1537 1536
1518 1518 1518 1518 1518 1518 1518 1519 1518 1518 1518 1518 1518 1518 1518 1518 1518 1518 1518 1518 1517 1517 1517 1517 1517 1517 1518 1518 1519 1520 1520 1520 1520 1520 1521 1521 1521 1520 1520 1520 1520 1520 1519 1520 1520 1520 1521 1521 1521 1520 1520 1520 1520 1522 1521 1519 1520 1523 1524 1523 1524 1526 1527 1528 1529 1530 1531 1531 1532 1533 1533 1534 1535 1535 1536 1536 1536 1536 1536 1535 1535 1535 1535 1534 1534
1518 1517 1517 1517 1517 1517 1517 1517 1517 1517 1517 1517 1517 1517 1516 1517 1517 1516 1516 1516 1516 1516 1516 1516 1516 1516 1516 1516 1517 1517 1518 1518 1518 1517 1518 1518 1518 1518 1517 1517 1517 1517 1517 1517 1517 1517 1517 1517 1517 1517 1517 1517 1518 1519 1520 1519 1519 1521 1522 1522 1523 1524 1525 1527 1527 1528 1529 1529 1530 1531 1531 1532 1533 1534 1534 1534 1534 1534 1534 1534 1534 1534 1533 1532 1532
1518 1517 1517 1517 1517 1516 1516 1516 1516 1516 1515 1515 1515 1515 1515 1515 1515 1515 1514 1514 1514 1514 1514 1514 1514 1514 1514 1514 1515 1515 1516 1516 1516 1515 1515 1515 1515 1515 1514 1514 1514 1514 1514 1514 1513 1513 1513 1513 1514 1514 1514 1514 1515 1517 1518 1518 1518 1519 1520 1521 1522 1523 1524 1525 1526 1527 1527 1527 1528 1529 1529 1530 1531 1531 1532 1533 1533 1533 1533 1533 1533 1532 1532 1531 1530
1518 1518 1517 1517 1516 1516 1515 1515 1514 1514 1514 1513 1513 1513 1513 1513 1513 1513 1513 1513 1513 1512 1512 1512 1512 1512 1512 1512 1512 1512 1513 1514 1514 1513 1513 1512 1512 1512 1512 1512 1511 1511 1511 1511 1510 1510 1510 1510 1510 1511 1511 1511 1512 1513 1515 1516 1517 1518 1519 1520 1522 1523 1525 1526 1526 1526 1526 1526 1527 1527 1528 1528 1528 1529 1530 1531 1531 1531 1531 1531 1531 1531 1530 1529 1528
1519 1518 1518 1517 1517 1516 1515 1515 1514 1513 1513 1512 1512 1512 1511 1511 1511 1511 1511 1511 1511 1511 1510 1510 1510 1510 1510 1510 1510 1509 1509 1510 1511 1511 1511 1511 1510 1510 1510 1510 1510 1509 1509 1509 1508 1508 1507 1507 1507 1508 1508 1509 1510 1511 1512 1515 1517 1519 1521 1521 1522 1523 1525 1527 1527 1526 1525 1525 1526 1526 1526 1527 1527 1528 1529 1530 1530 1530 1530 1529 1529 1529 1528 1527 1526
1520 1519 1519 1518 1517 1516 1516 1515 1514 1513 1513 1512 1512 1511 1511 1510 1510 1509 1509 1509 1509 1509 1508 1508 1508 1507 1507 1507 1507 1508 1508 1507 1508 1508 1508 1508 1508 1508 1508 1508 1508 1508 1507 1507 1506 1506 1506 1506 1505 1506 1507 1508 1509 1511 1511 1513 1515 1518 1520 1522 1522 1523 1524 1526 1526 1525 1524 1524 1524 1524 1525 1525 1526 1527 1528 1528 1528 1528 1528 1528 1528 1527 1526 1525 1524
1521 1520 1519 1519 1518 1517 1516 1515 1514 1514 1513 1512 1512 1511 1510 1510 1509 1508 1508 1507 1507 1506 1506 1506 1505 1505 1505 1504 1504 1505 1506 1506 1505 1505 1506 1506 1506 1506 1506 1506 1506 1506 1506 1505 1504 1504 1505 1505 1505 1505 1506 1507 1509 1510 1511 1512 1513 1515 1517 1519 1521 1523 1524 1525 1525 1524 1523 1522 1522 1522 1523 1523 1524 1526 1527 1527 1527 1527 1526 1526 1526 1525 1524 1523 1522
1522 1521 1520 1519 1518 1517 1516 1515 1515 1514 1513 1513 1512 1511 1510 1509 1508 1508 1507 1506 1506 1505 1504 1503 1503 1502 1502 1502 1501 1502 1502 1503 1503 1503 1503 1504 1504 1504 1504 1504 1504 1504 1504 1503 1503 1503 1503 1504 1504 1504 1504 1505 1506 1508 1509 1510 1511 1512 1514 1517 1520 1522 1524 1525 1524 1522 1521 1521 1521 1520 1521 1522 1523 1524 1525 1525 1525 1525 1525 1525 1524 1523 1522 1521 1521
1523 1522 1521 1520 1518 1517 1517 1516 1515 1515 1514 1513 1512 1511 1510 1509 1508 1507 1506 1505 1504 1504 1503 1501 1500 1500 1499 1500 1500 1500 1500 1500 1500 1500 1500 1501 1501 1502 1502 1502 1502 1502 1502 1501 1501 1501 1502 1502 1503 1503 1503 1504 1505 1506 1507 1508 1509 1511 1513 1516 1518 1520 1522 1522 1521 1520 1520 1520 1520 1520 1520 1521 1522 1522 1523 1523 1523 1524 1524 1523 1522 1521 1520 1519 1519
1524 1523 1522 1520 1519 1518 1517 1517 1516 1516 1515 1514 1513 1511 1510 1509 1508 1506 1505 1503 1502 1502 1501 1500 1498 1498 1498 1498 1498 1498 1498 1498 1498 1498 1498 1498 1499 1499 1499 1500 1500 1500 1500 1499 1499 1499 1499 1500 1501 1502 1502 1503 1504 1506 1507 1507 1508 1509 1511 1514 1516 1517 1518 1518 1518 1518 1519 1519 1519 1519 1520 1520 1520 1521 1521 1521 1522 1522 1522 1521 1520 1519 1518 1518 1517
1525 1523 1522 1521 1520 1519 1518 1518 1517 1516 1515 1514 1513 1512 1510 1509 1508 1506 1504 1503 1501 1500 1499 1498 1497 1496 1496 1496 1496 1497 1497 1497 1496 1496 1497 1497 1497 1497 1497 1497 1497 1497 1497 1497 1497 1497 1497 1498 1499 1500 1501 1502 1504 1505 1506 1506 1507 1508 1510 1511 1513 1514 1515 1515 1516 1516 1517 1517 1517 1518 1519 1519 1519 1520 1520 1520 1520 1520 1520 1519 1518 1518 1517 1517 1516
1525 1524 1522 1521 1520 1519 1519 1518 1517 1516 1515 1514 1513 1512 1511 1510 1508 1506 1504 1503 1501 1500 1499 1497 1496 1496 1496 1496 1496 1496 1496 1496 1496 1496 1496 1496 1495 1495 1495 1495 1495 1495 1495 1495 1495 1495 1495 1496 1497 1498 1499 1500 1502 1503 1504 1505 1506 1507 1508 1510 1511 1512 1512 1513 1514 1515 1515 1516 1516 1517 1518 1518 1518 1519 1519 1519 1519 1519 1519 1518 1517 1517 1516 1516 1515
1525 1524 1523 1521 1520 1519 1519 1518 1517 1516 1515 1514 1513 1512 1511 1510 1509 1507 1505 1503 1502 1501 1499 1498 1497 1496 1496 1496 1496 1496 1496 1496 1496 1496 1496 1495 1495 1494 1494 1494 1494 1494 1493 1493 1493 1493 1493 1494 1495 1495 1496 1498 1499 1500 1502 1503 1504 1506 1507 1508 1509 1510 1509 1510 1512 1513 1514 1515 1516 1516 1517 1517 1517 1518 1518 1518 1518 1518 1517 1517 1516 1515 1515 1515 1515
1525 1524 1523 1521 1520 1519 1519 1518 1517 1516 1515 1514 1513 1512 1512 1511 1509 1507 1506 1504 1503 1501 1500 1499 1498 1497 1497 1497 1496 1496 1496 1496 1495 1495 1495 1495 1495 1494 1494 1494 1493 1493 1492 1492 1492 1492 1491 1492 1492 1493 1494 1494 1496 1497 1498 1500 1501 1503 1505 1506 1507 1507 1507 1508 1510 1511 1513 1515 1515 1514 1515 1516 1517 1517 1517 1517 1517 1517 1516 1516 1515 1514 1514 1514 1514
1525 1524 1523 1522 1520 1519 1519 1518 1517 1517 1515 1515 1514 1513 1512 1511 1509 1508 1506 1505 1504 1502 1501 1500 1499 1498 1498 1498 1497 1497 1496 1496 1495 1495 1495 1494 1494 1494 1494 1494 1493 1493 1492 1491 1491 1491 1490 1490 1490 1491 1491 1492 1492 1494 1495 1497 1498 1501 1502 1504 1506 1507 1507 1508 1509 1511 1513 1514 1514 1513 1514 1516 1517 1517 1516 1516 1516 1516 1515 1515 1514 1514 1514 1513 1513
1525 1524 1523 1522 1521 1520 1519 1518 1518 1517 1516 1515 1514 1513 1512 1511 1510 1509 1507 1506 1505 1503 1502 1502 1501 1500 1500 1499 1498 1497 1497 1496 1496 1495 1495 1495 1495 1495 1495 1494 1494 1493 1492 1492 1491 1491 1490 1490 1490 1489 1489 1490 1491 1491 1493 1494 1497 1500 1502 1503 1505 1507 1508 1509 1510 1511 1512 1513 1513 1513 1514 1515 1515 1515 1515 1515 1515 1515 1514 1513 1513 1513 1513 1513 1512
1525 1524 1523 1522 1521 1520 1520 1519 1518 1517 1516 1515 1514 1513 1512 1512 1511 1510 1509 1508 1506 1506 1505 1504 1503 1502 1501 1500 1499 1498 1497 1496 1496 1496 1496 1496 1496 1496 1495 1495 1494 1494 1493 1492 1492 1491 1491 1490 1490 1490 1490 1490 1491 1492 1493 1495 1498 1501 1503 1504 1505 1507 1508 1509 1510 1510 1512 1513 1513 1513 1514 1514 1514 1514 1514 1514 1514 1513 1513 1512 1513 1513 1512 1512 1511
1525 1525 1524 1523 1521 1520 1519 1519 1518 1517 1516 1515 1514 1513 1513 1512 1512 1511 1510 1509 1508 1507 1507 1506 1505 1504 1503 1501 1500 1499 1498 1497 1497 1497 1497 1497 1497 1497 1496 1496 1496 1495 1495 1494 1493 1493 1493 1492 1492 1492 1493 1494 1495 1496 1497 1499 1500 1502 1504 1505 1506 1507 1508 1509 1509 1510 1512 1513 1513 1513 1513 1513 1512 1512 1512 1513 1512 1512 1512 1512 1512 1512 1511 1511 1511
1525 1525 1524 1523 1522 1520 1520 1519 1518 1517 1516 1516 1515 1514 1513 1513 1512 1512 1511 1510 1509 1509 1508 1507 1506 1505 1504 1503 1502 1501 1500 1499 1499 1499 1499 1498 1498 1498 1498 1498 1497 1497 1497 1496 1496 1495 1495 1496 1496 1496 1497 1498 1499 1499 1500 1501 1502 1503 1505 1506 1507 1508 1509 1509 1510 1510 1511 1512 1513 1513 1512 1511 1511 1511 1511 1511 1511 1511 1511 1512 1512 1511 1511 1511 1511
1525 1525 1524 1524 1522 1521 1520 1519 1519 1518 1517 1516 1516 1515 1514 1513 1513 1512 1512 1511 1510 1510 1509 1508 1507 1506 1505 1504 1503 1502 1501 1501 1501 1501 1500 1500 1500 1500 1500 1500 1500 1500 1499 1499 1499 1499 1498 1499 1499 1499 1500 1500 1501 1501 1502 1503 1503 1504 1505 1506 1508 1508 1508 1509 1509 1510 1510 1511 1511 1511 1511 1510 1510 1510 1510 1510 1510 1510 1511 1511 1511 1511 1511 1511 1510
1525 1525 1525 1524 1523 1522 1521 1520 1519 1519 1518 1517 1516 1516 1515 1514 1513 1513 1512 1512 1511 1510 1510 1509 1508 1507 1507 1506 1505 1504 1503 1503 1502 1502 1502 1502 1502 1501 1501 1502 1502 1502 1502 1501 1501 1501 1501 1501 1501 1501 1502 1502 1502 1503 1504 1504 1505 1505 1506 1506 1507 1508 1508 1508 1509 1509 1510 1510 1510 1510 1509 1509 1509 1509 1509 1509 1509 1510 1510 1511 1511 1510 1510 1510 1510
1525 1525 1525 1524 1523 1522 1521 1521 1520 1519 1519 1518 1517 1517 1516 1515 1514 1513 1513 1512 1512 1511 1511 1510 1509 1509 1508 1507 1506 1506 1505 1504 1504 1504 1504 1503 1503 1503 1503 1503 1503 1504 1504 1503 1503 1503 1503 1503 1503 1503 1503 1504 1504 1505 1505 1506 1506 1506 1507 1507 1507 1507 1508 1508 1508 1509 1509 1509 1509 1508 1508 1508 1508 1508 1509 1508 1508 1509 1509 1510 1510 1510 1510 1509 1509
1524 1525 1525 1524 1523 1522 1522 1521 1521 1520 1519 1518 1518 1517 1517 1516 1515 1514 1514 1513 1513 1512 1512 1511 1511 1510 1510 1509 1508 1508 1507 1507 1506 1506 1506 1505 1505 1505 1505 1505 1505 1505 1505 1505 1505 1505 1505 1505 1505 1505 1506 1506 1506 1507 1507 1507 1507 1507 1507 1507 1507 1508 1508 1508 1508 1508 1508 1508 1508 1508 1508 1508 1508 1508 1508 1508 1508 1508 1509 1510 1510 1509 1509 1509 1509
1524 1524 1524 1524 1523 1522 1522 1521 1521 1520 1519 1519 1518 1518 1517 1517 1516 1515 1515 1514 1514 1513 1513 1512 1512 1512 1512 1511 1511 1510 1510 1509 1509 1508 1508 1508 1508 1508 1508 1508 1508 1508 1508 1507 1507 1507 1507 1507 1507 1507 1507 1508 1508 1508 1508 1508 1508 1508 1508 1508 1508 1508 1508 1509 1509 1509 1509 1509 1508 1508 1508 1508 1508 1508 1508 1508 1508 1508 1509 1509 1509 1509 1508 1508 1508
1523 1523 1523 1523 1523 1522 1522 1521 1521 1520 1519 1519 1518 1518 1517 1517 1516 1516 1516 1515 1515 1514 1514 1514 1513 1513 1513 1513 1513 1512 1512 1512 1511 1511 1510 1510 1510 1510 1510 1510 1509 1509 1509 1509 1509 1509 1508 1508 1508 1508 1508 1508 1509 1509 1509 1508 1508 1508 1508 1508 1509 1509 1509 1509 1510 1510 1509 1509 1509 1509 1509 1509 1508 1508 1508 1508 1509 1509 1509 1509 1508 1508 1508 1507 1507
1522 1522 1522 1522 1522 1521 1521 1521 1520 1520 1519 1519 1518 1518 1517 1517 1517 1516 1516 1515 1515 1515 1515 1514 1514 1514 1514 1514 1513 1513 1513 1513 1513 1512 1512 1512 1511 1511 1511 1510 1510 1510 1509 1509 1509 1509 1509 1509 1509 1509 1509 1509 1509 1509 1509 1509 1509 1509 1509 1509 1509 1510 1510 1510 1510 1510 1510 1510 1510 1510 1509 1509 1509 1509 1509 1509 1509 1509 1509 1508 1508 1507 1507 1507 1507